Location: *
(49.5667°N, 1.3667°W)
Time: 21:36:50
(UTC+00:00)

Cosmos 1707 - Pass Details

Date: 20 September 2019
Orbit: 517 x 530 km, 82.5° (Epoch: 15 October)

Event Time Altitude Azimuth Distance (km) Brightness Sun altitude
Rises 19:36:23 0° 345° (NNW) 2,683 6.8 -14.8°
Reaches altitude 10° 19:38:35 10° 340° (NNW) 1,789 6.0 -15.1°
Maximum altitude 19:42:23 50° 265° (W) 686 3.7 -15.7°
Drops below altitude 10° 19:46:09 10° 190° (S) 1,775 5.3 -16.2°
Sets 19:48:20 0° 185° (S) 2,660 6.1 -16.6°
